DW7126 Lourinha PT current weather conditions

sailwx.info

Wind from 026 at 9 knots gusting 14

Air temperature 16.1° C
Dewpoint 14.8° C

Last reported at 2016-Jun-28 21:45 UTC.
Time now 2016-Jun-28 22:25 UTC

Location: N 39°14' W 009°18'.
View on Google Maps.

See reports from other nearby stations

  
Tides and Currents Weather Stations Pressure Air Temp Water Temp Dewpoint Dewpoint Depression Visibility Wind Speed Wind Dir Waves Ship Positions
date/time (UTC)wind fromknots sea level pressurealtimeterstation pressurevisibilityair tempwater tempwave heightnotes
2016-Jun-28 21:45 026 9 gusting 14 16.1
2016-Jun-28 21:40 031 6 gusting 17 16.1
2016-Jun-28 21:35 049 9 gusting 17 16.1
2016-Jun-28 21:30 013 7 gusting 13 16.1
2016-Jun-28 21:25 023 8 gusting 13 16.1
2016-Jun-28 21:20 015 9 gusting 14 16.1
2016-Jun-28 21:15 021 8 gusting 14 16.1
2016-Jun-28 21:10 038 9 gusting 14 16.1
2016-Jun-28 21:05 028 8 gusting 18 16.1
2016-Jun-28 21:00 005 8 gusting 18 16.1
2016-Jun-28 20:55 044 10 gusting 17 16.7
2016-Jun-28 20:50 020 11 gusting 17 16.7
2016-Jun-28 20:45 032 9 gusting 14 16.7
2016-Jun-28 20:40 005 9 gusting 14 16.7
2016-Jun-28 20:35 028 6 gusting 13 16.7
2016-Jun-28 20:30 046 6 gusting 13 16.7
2016-Jun-28 20:25 040 7 gusting 15 16.7
2016-Jun-28 20:20 355 10 gusting 15 16.7
2016-Jun-28 20:15 038 8 gusting 15 16.7
2016-Jun-28 20:10 021 10 gusting 16 16.7
2016-Jun-28 20:05 026 9 gusting 16 17.2
2016-Jun-28 20:00 028 9 gusting 13 17.2
2016-Jun-28 19:55 005 9 gusting 15 17.2
2016-Jun-28 19:50 005 8 gusting 17 17.2
2016-Jun-28 19:45 019 12 gusting 17 17.2
2016-Jun-28 19:40 016 10 gusting 14 17.8
2016-Jun-28 19:35 034 10 gusting 16 17.8
2016-Jun-28 19:30 360 9 gusting 16 17.8
2016-Jun-28 19:25 017 8 gusting 18 17.8
2016-Jun-28 19:20 023 9 gusting 18 17.8
2016-Jun-28 19:15 020 9 gusting 15 18.3
2016-Jun-28 19:10 026 8 gusting 21 18.3
2016-Jun-28 19:05 026 12 gusting 21 18.3
2016-Jun-28 19:00 018 13 gusting 23 18.3
2016-Jun-28 18:55 029 11 gusting 23 18.3
2016-Jun-28 18:50 044 13 gusting 22 18.9
2016-Jun-28 18:45 029 11 gusting 26 18.9
2016-Jun-28 18:40 015 17 gusting 26 18.9
2016-Jun-28 18:36 033 14 gusting 24 18.9
2016-Jun-28 18:31 025 15 gusting 24 18.9
2016-Jun-28 18:20 015 9 gusting 21 19.4
2016-Jun-28 18:16 029 13 gusting 26 19.4
2016-Jun-28 18:10 035 13 gusting 26 19.4
2016-Jun-28 18:02 021 15 gusting 24 19.4
2016-Jun-28 17:55 022 15 gusting 22 20.0
2016-Jun-28 17:50 040 10 gusting 18 20.0
2016-Jun-28 17:45 019 13 gusting 18 20.0
2016-Jun-28 17:40 341 12 gusting 20 20.0
2016-Jun-28 17:35 047 13 gusting 23 20.0
2016-Jun-28 17:30 360 13 gusting 23 20.0
2016-Jun-28 17:25 009 11 gusting 20 20.0
2016-Jun-28 17:20 026 14 gusting 20 20.0
2016-Jun-28 17:15 019 13 gusting 23 20.0
2016-Jun-28 17:10 036 13 gusting 25 20.0
2016-Jun-28 17:05 019 14 gusting 25 20.0
2016-Jun-28 17:00 051 15 gusting 23 20.6
2016-Jun-28 16:55 025 12 gusting 25 20.6
2016-Jun-28 16:50 032 17 gusting 25 20.6
2016-Jun-28 16:45 015 14 gusting 28 20.6
2016-Jun-28 16:40 032 14 gusting 28 20.0
2016-Jun-28 16:35 028 13 gusting 22 20.6
2016-Jun-28 16:30 011 16 gusting 28 20.0
2016-Jun-28 16:25 040 19 gusting 28 20.0
2016-Jun-28 16:20 035 18 gusting 26 20.0
2016-Jun-28 16:15 038 16 gusting 23 20.6
2016-Jun-28 16:10 029 16 gusting 25 20.6
2016-Jun-28 16:05 027 19 gusting 26 20.6
2016-Jun-28 16:00 036 19 gusting 26 20.6
2016-Jun-28 15:55 032 15 gusting 22 20.6
2016-Jun-28 15:50 024 15 gusting 27 20.6
2016-Jun-28 15:45 034 19 gusting 29 20.6
2016-Jun-28 15:40 049 13 gusting 21 21.1
2016-Jun-28 15:35 030 16 gusting 21 21.1
2016-Jun-28 15:30 017 13 gusting 25 21.1
2016-Jun-28 15:25 039 10 gusting 27 21.1
2016-Jun-28 15:20 032 17 gusting 27 20.6
2016-Jun-28 15:15 039 17 gusting 26 20.6
2016-Jun-28 15:10 031 15 gusting 24 20.6
2016-Jun-28 15:05 024 15 gusting 25 20.6
2016-Jun-28 15:00 040 18 gusting 26 20.6
2016-Jun-28 14:55 036 15 gusting 26 20.6
2016-Jun-28 14:50 028 13 gusting 22 21.1
2016-Jun-28 14:45 026 15 gusting 23 20.6
2016-Jun-28 14:40 026 13 gusting 26 20.6
2016-Jun-28 14:35 013 13 gusting 33 20.6
2016-Jun-28 14:30 030 19 gusting 33 20.6
2016-Jun-28 14:25 011 17 gusting 28 20.6
2016-Jun-28 14:20 037 20 gusting 28 21.1
2016-Jun-28 14:15 009 16 gusting 26 21.1
2016-Jun-28 14:10 046 19 gusting 24 21.1
2016-Jun-28 14:05 031 15 gusting 26 21.1
2016-Jun-28 14:00 027 16 gusting 26 21.7
2016-Jun-28 13:55 023 16 gusting 25 21.7
2016-Jun-28 13:50 030 16 gusting 22 21.7
2016-Jun-28 13:45 036 14 gusting 23 21.7
2016-Jun-28 13:40 355 12 gusting 19 21.7
2016-Jun-28 13:35 014 13 gusting 21 21.7
2016-Jun-28 13:30 025 13 gusting 23 21.7
2016-Jun-28 13:25 355 16 gusting 26 21.7
2016-Jun-28 13:20 026 18 gusting 28 21.1
2016-Jun-28 13:15 034 20 gusting 28 21.1
2016-Jun-28 13:10 032 13 gusting 22 21.7
2016-Jun-28 13:05 360 12 gusting 30 21.7
2016-Jun-28 13:00 024 20 gusting 30 21.1
2016-Jun-28 12:55 030 20 gusting 28 21.1
2016-Jun-28 12:50 022 16 gusting 26 21.7
2016-Jun-28 12:45 030 13 gusting 25 22.2
2016-Jun-28 12:40 024 17 gusting 25 21.7
2016-Jun-28 12:35 038 14 gusting 27 21.7
2016-Jun-28 12:30 070 19 gusting 27 21.1
2016-Jun-28 12:25 028 18 gusting 23 21.7
2016-Jun-28 12:20 030 11 gusting 22 21.7
2016-Jun-28 12:15 056 14 gusting 24 21.7
2016-Jun-28 12:10 012 14 gusting 24 21.7
2016-Jun-28 12:05 027 13 gusting 19 22.2
2016-Jun-28 12:00 030 10 gusting 21 22.2
2016-Jun-28 11:55 044 10 gusting 26 21.7
2016-Jun-28 11:50 037 11 gusting 26 21.7
2016-Jun-28 11:45 011 12 gusting 19 21.7
2016-Jun-28 11:40 012 11 gusting 19 22.2
2016-Jun-28 11:35 015 13 gusting 19 22.2
2016-Jun-28 11:30 032 13 gusting 19 21.7
2016-Jun-28 11:25 027 12 gusting 19 21.7
2016-Jun-28 11:20 044 10 gusting 17 21.7
2016-Jun-28 11:15 010 11 gusting 18 21.7
2016-Jun-28 11:10 063 13 gusting 18 21.7
2016-Jun-28 11:05 011 11 gusting 22 21.7
2016-Jun-28 11:00 025 14 gusting 22 21.7
2016-Jun-28 10:55 018 11 gusting 19 21.7
2016-Jun-28 10:50 053 11 gusting 19 21.7
2016-Jun-28 10:45 022 8 gusting 16 21.1
2016-Jun-28 10:40 017 6 gusting 17 21.1
2016-Jun-28 10:35 019 9 gusting 16 21.1
2016-Jun-28 10:30 069 8 gusting 14 21.1
2016-Jun-28 10:25 047 7 gusting 13 21.1
2016-Jun-28 10:20 005 5 gusting 14 21.1
2016-Jun-28 10:15 040 6 gusting 17 21.1
2016-Jun-28 10:10 038 12 gusting 17 20.6
2016-Jun-28 10:05 355 9 gusting 19 20.6
2016-Jun-28 10:00 030 13 gusting 18 20.6
2016-Jun-28 09:55 019 8 gusting 21 20.6
2016-Jun-28 09:50 015 9 gusting 21 20.6
2016-Jun-28 09:45 013 11 gusting 17 20.6
2016-Jun-28 09:40 030 11 gusting 15 20.6
2016-Jun-28 09:35 031 7 gusting 21 20.6
2016-Jun-28 09:30 041 12 gusting 25 20.0
2016-Jun-28 09:25 024 13 gusting 25 20.0
2016-Jun-28 09:20 017 13 gusting 22 19.4
2016-Jun-28 09:15 053 13 gusting 20 19.4
2016-Jun-28 09:10 026 12 gusting 20 19.4
2016-Jun-28 09:05 010 12 gusting 19 19.4
2016-Jun-28 09:00 043 7 gusting 14 19.4
2016-Jun-28 08:55 005 7 gusting 20 19.4
2016-Jun-28 08:50 017 13 gusting 20 19.4
2016-Jun-28 08:45 038 10 gusting 16 19.4
2016-Jun-28 08:40 033 8 gusting 16 19.4
2016-Jun-28 08:35 026 7 gusting 21 18.9
2016-Jun-28 08:30 355 13 gusting 21 18.9
2016-Jun-28 08:25 022 10 gusting 16 18.9
2016-Jun-28 08:20 028 9 gusting 19 18.9
2016-Jun-28 08:15 026 12 gusting 19 18.9
2016-Jun-28 08:10 053 8 gusting 14 18.9
2016-Jun-28 08:05 032 7 gusting 14 18.3
2016-Jun-28 08:00 022 6 gusting 15 18.3
2016-Jun-28 07:55 017 10 gusting 15 18.3
2016-Jun-28 07:50 025 8 gusting 17 18.3
2016-Jun-28 07:45 030 7 gusting 17 17.8
2016-Jun-28 07:40 026 7 gusting 13 17.8
2016-Jun-28 07:35 034 6 gusting 11 17.8
2016-Jun-28 07:30 030 7 gusting 13 17.8
2016-Jun-28 07:25 005 7 gusting 13 17.8
2016-Jun-28 07:20 355 6 gusting 10 17.2
2016-Jun-28 07:15 014 5 gusting 9 17.2
2016-Jun-28 07:10 059 6 gusting 9 17.2
2016-Jun-28 07:05 024 4 gusting 8 17.2
2016-Jun-28 07:00 360 4 gusting 8 16.7
2016-Jun-28 06:56 032 4 gusting 8 16.7
2016-Jun-28 06:50 034 3 gusting 12 16.7
2016-Jun-28 06:45 360 6 gusting 16 16.7
2016-Jun-28 06:40 360 10 gusting 16 16.7
2016-Jun-28 06:35 005 7 gusting 13 16.7
2016-Jun-28 06:30 360 6 gusting 12 16.1
2016-Jun-28 06:25 039 6 gusting 10 16.1
2016-Jun-28 06:20 021 6 gusting 10 16.1
2016-Jun-28 06:15 031 6 gusting 10 16.1
2016-Jun-28 06:10 028 7 gusting 10 16.1
2016-Jun-28 06:05 019 6 gusting 8 16.1
2016-Jun-28 06:00 028 6 gusting 8 16.1
2016-Jun-28 05:55 015 5 gusting 8 16.1
2016-Jun-28 05:50 027 6 gusting 8 16.1
2016-Jun-28 05:45 032 4 gusting 7 15.6
2016-Jun-28 05:40 040 3 gusting 9 15.6
2016-Jun-28 05:35 017 6 gusting 9 15.6
2016-Jun-28 05:30 035 6 gusting 13 15.6
2016-Jun-28 05:25 035 7 gusting 13 15.6
2016-Jun-28 05:20 049 6 gusting 10 15.6
2016-Jun-28 05:15 025 5 gusting 8 16.1
2016-Jun-28 05:10 021 4 gusting 12 16.1
2016-Jun-28 05:05 011 6 gusting 12 16.1
2016-Jun-28 05:00 019 4 gusting 13 16.1
2016-Jun-28 04:55 019 5 gusting 13 16.1
2016-Jun-28 04:50 033 6 gusting 10 16.1
2016-Jun-28 04:45 034 1 gusting 8 16.1
2016-Jun-28 04:40 051 4 gusting 8 16.1
2016-Jun-28 04:35 011 0 gusting 7 16.1
2016-Jun-28 04:30 012 4 gusting 9 16.1
2016-Jun-28 04:25 005 3 gusting 9 16.1
2016-Jun-28 04:20 032 3 gusting 9 16.1
2016-Jun-28 04:15 012 4 gusting 9 16.1
2016-Jun-28 04:10 005 4 gusting 9 16.1
2016-Jun-28 04:05 028 4 gusting 9 16.1
2016-Jun-28 04:00 027 6 gusting 8 16.1
2016-Jun-28 03:55 049 3 gusting 7 16.1
2016-Jun-28 03:50 061 4 gusting 7 16.1
2016-Jun-28 03:45 012 5 gusting 8 16.1
2016-Jun-28 03:40 010 5 gusting 8 16.1
2016-Jun-28 03:35 032 4 gusting 8 16.1
2016-Jun-28 03:30 040 3 gusting 8 16.1
2016-Jun-28 03:25 026 6 gusting 8 16.1
2016-Jun-28 03:20 033 5 gusting 8 16.1
2016-Jun-28 03:15 030 5 gusting 8 16.1
2016-Jun-28 03:10 018 6 gusting 8 16.1
2016-Jun-28 03:05 044 4 gusting 8 16.1
2016-Jun-28 03:00 028 5 gusting 8 16.1
2016-Jun-28 02:55 019 3 gusting 7 16.1
2016-Jun-28 02:50 355 5 gusting 9 16.1
2016-Jun-28 02:45 034 6 gusting 9 16.1
2016-Jun-28 02:40 026 5 gusting 7 16.1
2016-Jun-28 02:35 019 5 gusting 7 16.1
2016-Jun-28 02:30 028 5 gusting 7 16.1
2016-Jun-28 02:25 028 3 gusting 7 16.1
2016-Jun-28 02:20 039 2 gusting 9 16.1
2016-Jun-28 02:15 019 2 gusting 7 16.1
2016-Jun-28 02:10 024 4 gusting 6 16.1
2016-Jun-28 02:05 030 4 gusting 8 16.1
2016-Jun-28 02:00 053 4 gusting 6 16.1
2016-Jun-28 01:55 030 2 gusting 6 16.1
2016-Jun-28 01:50 021 3 gusting 6 16.1
2016-Jun-28 01:45 026 3 gusting 8 16.1
2016-Jun-28 01:40 005 4 gusting 8 16.1
2016-Jun-28 01:35 023 4 gusting 7 16.7
2016-Jun-28 01:30 011 5 gusting 7 16.7
2016-Jun-28 01:25 021 1 gusting 7 16.7
2016-Jun-28 01:20 020 2 gusting 7 16.7
2016-Jun-28 01:15 021 5 gusting 6 16.7
2016-Jun-28 01:10 026 4 gusting 7 16.7
2016-Jun-28 01:05 016 3 gusting 7 16.7
2016-Jun-28 01:00 019 2 gusting 7 16.7
2016-Jun-28 00:55 037 4 gusting 7 16.7
2016-Jun-28 00:50 020 5 gusting 7 16.7
2016-Jun-28 00:45 028 4 gusting 6 16.7
2016-Jun-28 00:40 024 1 gusting 6 16.7
2016-Jun-28 00:35 026 3 gusting 6 16.7
2016-Jun-28 00:30 022 3 gusting 6 16.7
2016-Jun-28 00:25 056 2 gusting 6 16.7
2016-Jun-28 00:20 034 1 gusting 7 16.7
2016-Jun-28 00:15 017 3 gusting 8 16.7
2016-Jun-28 00:10 036 6 gusting 8 16.7
2016-Jun-28 00:05 027 5 gusting 8 16.7
2016-Jun-28 00:00 022 3 gusting 8 16.7
2016-Jun-27 23:55 037 4 gusting 8 16.7
2016-Jun-27 23:50 049 4 gusting 8 16.7
2016-Jun-27 23:45 057 3 gusting 8 16.7
2016-Jun-27 23:40 350 2 gusting 6 16.7
2016-Jun-27 23:35 054 5 gusting 7 16.7
2016-Jun-27 23:30 025 3 gusting 7 16.7
2016-Jun-27 23:25 360 3 gusting 9 16.7
2016-Jun-27 23:20 026 4 gusting 9 16.7
2016-Jun-27 23:15 040 3 gusting 9 16.7
2016-Jun-27 23:10 024 6 gusting 12 16.7
2016-Jun-27 23:05 024 6 gusting 12 16.7
2016-Jun-27 23:00 005 2 gusting 9 16.7
2016-Jun-27 22:55 013 4 gusting 9 16.7
2016-Jun-27 22:50 026 5 gusting 9 16.7
2016-Jun-27 22:45 025 4 gusting 11 16.7
2016-Jun-27 22:40 028 5 gusting 11 16.7
2016-Jun-27 22:35 028 6 gusting 9 16.7
2016-Jun-27 22:30 030 3 gusting 9 16.7
2016-Jun-27 22:25 005 5 gusting 9 16.7
2016-Jun-27 22:20 031 4 gusting 8 16.7
2016-Jun-27 22:15 016 5 gusting 10 17.2
2016-Jun-27 22:10 021 5 gusting 10 17.2
2016-Jun-27 22:05 034 5 gusting 10 17.2
2016-Jun-27 22:00 011 6 gusting 10 17.2
2016-Jun-27 21:55 005 4 gusting 8 17.2
2016-Jun-27 21:50 029 4 gusting 9 17.2
2016-Jun-27 21:45 034 6 gusting 9 17.2
2016-Jun-27 21:40 022 5 gusting 10 17.2
2016-Jun-27 21:35 005 6 gusting 10 17.2
2016-Jun-27 21:30 014 5 gusting 9 17.2
2016-Jun-27 21:25 033 5 gusting 10 17.2
2016-Jun-27 21:20 019 6 gusting 10 17.2
2016-Jun-27 21:15 009 6 gusting 9 17.2
2016-Jun-27 21:10 015 4 gusting 8 17.2
2016-Jun-27 21:05 019 6 gusting 9 17.2
2016-Jun-27 21:00 355 4 gusting 9 17.2
2016-Jun-27 20:55 028 5 gusting 9 17.8
2016-Jun-27 20:50 025 4 gusting 9 17.8
2016-Jun-27 20:45 019 5 gusting 9 17.8
2016-Jun-27 20:40 012 5 gusting 11 17.8
2016-Jun-27 20:35 010 4 gusting 11 17.8
2016-Jun-27 20:30 005 4 gusting 9 17.8
2016-Jun-27 20:25 019 5 gusting 8 17.8
2016-Jun-27 20:20 035 5 gusting 11 17.8
2016-Jun-27 20:15 023 7 gusting 11 18.3
2016-Jun-27 20:10 026 7 gusting 11 18.3
2016-Jun-27 20:05 036 5 gusting 8 18.3
2016-Jun-27 20:00 022 6 gusting 13 18.3
2016-Jun-27 19:55 022 8 gusting 13 18.3
2016-Jun-27 19:50 012 6 gusting 11 18.9
2016-Jun-27 19:45 023 7 gusting 11 18.9
2016-Jun-27 19:37 016 6 gusting 12 19.4
2016-Jun-27 19:30 033 6 gusting 12 19.4
2016-Jun-27 19:25 026 6 gusting 12 19.4
2016-Jun-27 19:20 033 6 gusting 12 19.4
2016-Jun-27 19:15 013 8 gusting 13 20.0
2016-Jun-27 19:10 009 7 gusting 13 20.0
2016-Jun-27 19:05 027 9 gusting 13 20.0
2016-Jun-27 19:00 033 8 gusting 13 20.6
2016-Jun-27 18:55 041 6 gusting 13 20.6
2016-Jun-27 18:50 005 6 gusting 13 20.6
2016-Jun-27 18:45 019 6 gusting 13 20.6
2016-Jun-27 18:40 344 5 gusting 12 21.1
2016-Jun-27 18:35 032 6 gusting 12 21.1
2016-Jun-27 18:30 035 6 gusting 12 21.1
2016-Jun-27 18:25 355 7 gusting 17 21.7
2016-Jun-27 18:20 027 7 gusting 17 21.1
2016-Jun-27 18:10 360 10 gusting 15 22.2
2016-Jun-27 17:56 015 9 gusting 15 22.2
2016-Jun-27 17:50 355 7 gusting 12 22.8
2016-Jun-27 17:46 005 6 gusting 15 22.2
2016-Jun-27 17:40 347 12 gusting 15 22.8
2016-Jun-27 17:35 351 10 gusting 15 22.8
2016-Jun-27 17:26 355 7 gusting 15 23.3
2016-Jun-27 17:20 022 7 gusting 21 23.3
2016-Jun-27 17:15 344 13 gusting 21 22.8
2016-Jun-27 17:10 018 7 gusting 15 22.8
2016-Jun-27 17:05 038 10 gusting 15 23.3
2016-Jun-27 16:55 005 10 gusting 15 23.3
2016-Jun-27 16:50 348 8 gusting 14 23.9
2016-Jun-27 16:45 036 8 gusting 15 23.9
2016-Jun-27 16:40 026 8 gusting 17 23.9
2016-Jun-27 16:36 015 9 gusting 20 23.9
2016-Jun-27 16:27 035 13 gusting 17 24.4
2016-Jun-27 16:20 030 9 gusting 15 24.4
2016-Jun-27 16:16 021 9 gusting 14 24.4
2016-Jun-27 16:10 024 6 gusting 15 23.9
2016-Jun-27 16:05 005 9 gusting 15 23.9
2016-Jun-27 15:56 014 8 gusting 13 24.4
2016-Jun-27 15:52 013 9 gusting 14 24.4
2016-Jun-27 15:40 027 9 gusting 15 24.4
2016-Jun-27 15:31 039 11 gusting 17 24.4
2016-Jun-27 15:22 033 12 gusting 17 25.0
2016-Jun-27 15:15 043 8 gusting 15 25.0
2016-Jun-27 15:10 349 6 gusting 15 25.0
2016-Jun-27 15:05 022 6 gusting 14 25.0
2016-Jun-27 15:00 360 8 gusting 14 25.0
2016-Jun-27 14:46 345 7 gusting 13 25.0
2016-Jun-27 14:30 038 7 gusting 12 26.1
2016-Jun-27 14:25 044 6 gusting 10 25.6
2016-Jun-27 14:20 319 6 gusting 11 26.1
2016-Jun-27 14:15 030 6 gusting 11 26.7
2016-Jun-27 14:11 026 6 gusting 11 26.1
2016-Jun-27 14:05 024 6 gusting 9 26.1
2016-Jun-27 14:00 005 6 gusting 11 26.1
2016-Jun-27 13:55 031 6 gusting 12 26.1
2016-Jun-27 13:51 024 8 gusting 12 25.6
2016-Jun-27 13:45 014 7 gusting 11 26.7
2016-Jun-27 13:41 013 8 gusting 12 26.1
2016-Jun-27 13:35 025 8 gusting 13 26.1
2016-Jun-27 13:30 017 10 gusting 13 25.6
2016-Jun-27 13:25 349 8 gusting 13 25.6
2016-Jun-27 13:20 018 8 gusting 13 26.1
2016-Jun-27 13:12 349 7 gusting 14 26.1
2016-Jun-27 13:05 355 7 gusting 16 26.1
2016-Jun-27 13:01 015 10 gusting 16 26.1
2016-Jun-27 12:51 360 8 gusting 13 25.6
2016-Jun-27 12:40 014 8 gusting 13 25.0
2016-Jun-27 12:35 011 7 gusting 13 25.6
2016-Jun-27 12:30 013 7 gusting 13 25.6
2016-Jun-27 12:20 005 6 gusting 12 25.6
2016-Jun-27 12:15 036 7 gusting 13 26.1
2016-Jun-27 12:10 031 7 gusting 13 26.1
2016-Jun-27 12:05 011 7 gusting 12 26.1
2016-Jun-27 12:01 037 6 gusting 10 25.6
2016-Jun-27 11:51 027 6 gusting 12 25.6
2016-Jun-27 11:46 022 7 gusting 11 25.6
2016-Jun-27 11:35 028 6 gusting 12 25.6
2016-Jun-27 11:31 024 8 gusting 12 25.0
2016-Jun-27 11:20 005 6 gusting 9 25.0
2016-Jun-27 11:15 346 6 gusting 9 25.0
2016-Jun-27 11:11 032 4 gusting 9 25.0
2016-Jun-27 11:00 018 5 gusting 7 24.4
2016-Jun-27 10:55 019 6 gusting 10 24.4
2016-Jun-27 10:45 013 6 gusting 8 24.4
2016-Jun-27 10:40 025 6 gusting 8 24.4
2016-Jun-27 10:30 005 5 gusting 9 23.9
2016-Jun-27 10:21 025 6 gusting 9 23.9
2016-Jun-27 10:15 355 5 gusting 9 23.3
2016-Jun-27 10:10 030 5 gusting 11 23.9
2016-Jun-27 10:05 021 8 gusting 11 23.9
2016-Jun-27 10:00 028 6 gusting 10 23.3
2016-Jun-27 09:50 022 5 gusting 8 23.3
2016-Jun-27 09:46 005 5 gusting 7 23.3
2016-Jun-27 09:35 005 4 gusting 8 23.3
2016-Jun-27 09:25 017 3 gusting 7 22.8
2016-Jun-27 09:21 015 4 gusting 7 22.8
2016-Jun-27 09:15 005 3 gusting 7 22.8
2016-Jun-27 09:10 355 6 gusting 7 22.2
2016-Jun-27 09:01 348 3 gusting 6 22.2
2016-Jun-27 08:55 026 3 gusting 6 21.7
2016-Jun-27 08:46 032 4 gusting 7 21.7
2016-Jun-27 08:35 018 3 gusting 6 21.1
2016-Jun-27 08:30 028 4 gusting 6 21.1
2016-Jun-27 08:21 026 3 gusting 6 20.6
2016-Jun-27 08:15 021 2 gusting 5 20.0
2016-Jun-27 08:10 032 2 gusting 5 20.0
2016-Jun-27 08:05 038 1 gusting 6 19.4
2016-Jun-27 08:00 351 18.9
2016-Jun-27 07:55 021 3 gusting 6 18.9
2016-Jun-27 07:50 025 3 gusting 6 18.3
2016-Jun-27 07:45 005 17.8
2016-Jun-27 07:41 010 2 gusting 4 17.2
2016-Jun-27 07:32 028 16.7
2016-Jun-27 07:25 028 16.1
2016-Jun-27 07:20 028 16.1
2016-Jun-27 07:15 027 16.1
2016-Jun-27 07:10 027 15.6
2016-Jun-27 07:05 027 16.1
2016-Jun-27 07:00 028 15.6
2016-Jun-27 06:55 028 15.0
2016-Jun-27 06:50 028 15.0
2016-Jun-27 06:45 028 14.4
2016-Jun-27 06:40 028 14.4
2016-Jun-27 06:35 028 14.4
2016-Jun-27 06:30 028 14.4
2016-Jun-27 06:25 028 14.4
2016-Jun-27 06:20 028 14.4
2016-Jun-27 06:15 028 14.4
2016-Jun-27 06:10 028 14.4
2016-Jun-27 06:05 028 15.0
2016-Jun-27 06:00 028 14.4
2016-Jun-27 05:55 028 14.4
2016-Jun-27 05:50 028 14.4
2016-Jun-27 05:45 028 13.9
2016-Jun-27 05:40 028 14.4
2016-Jun-27 05:35 028 15.0
2016-Jun-27 05:30 028 15.0
2016-Jun-27 05:25 028 15.0
2016-Jun-27 05:20 028 15.0
2016-Jun-27 05:15 028 15.0
2016-Jun-27 05:10 028 15.0
2016-Jun-27 05:05 028 15.0
2016-Jun-27 05:00 028 15.0
2016-Jun-27 04:55 028 15.0
2016-Jun-27 04:50 028 15.0
2016-Jun-27 04:45 028 15.0
2016-Jun-27 04:40 028 15.0
2016-Jun-27 04:35 028 15.0
2016-Jun-27 04:30 028 15.0
2016-Jun-27 04:25 028 15.0
2016-Jun-27 04:20 028 0 gusting 2 15.6
2016-Jun-27 04:15 028 15.6
2016-Jun-27 04:10 028 15.6
2016-Jun-27 04:05 028 1 gusting 3 15.6
2016-Jun-27 04:00 024 15.6
2016-Jun-27 03:55 024 2 gusting 4 15.6
2016-Jun-27 03:50 024 2 gusting 3 15.6
2016-Jun-27 03:45 024 2 gusting 5 15.6
2016-Jun-27 03:40 024 1 gusting 5 15.6
2016-Jun-27 03:35 025 0 gusting 3 15.6
2016-Jun-27 03:30 024 1 gusting 3 15.6
2016-Jun-27 03:25 024 0 gusting 4 15.6
2016-Jun-27 03:20 025 2 gusting 4 15.6
2016-Jun-27 03:15 036 1 gusting 3 15.6
2016-Jun-27 03:10 037 15.6
2016-Jun-27 03:05 038 0 gusting 3 15.6
2016-Jun-27 03:00 038 0 gusting 3 15.6
2016-Jun-27 02:55 038 15.6
2016-Jun-27 02:50 038 16.1
2016-Jun-27 02:45 038 16.1
2016-Jun-27 02:40 034 16.1
2016-Jun-27 02:35 034 16.1
2016-Jun-27 02:30 034 0 gusting 4 16.1
2016-Jun-27 02:25 034 16.1
2016-Jun-27 02:20 034 0 gusting 3 16.1
2016-Jun-27 02:15 034 1 gusting 3 16.1
2016-Jun-27 02:10 034 1 gusting 4 16.1
2016-Jun-27 02:06 034 1 gusting 4 16.1
2016-Jun-27 02:01 035 1 gusting 6 16.1
2016-Jun-27 01:55 035 3 gusting 6 16.1
2016-Jun-27 01:50 038 2 gusting 7 16.1
2016-Jun-27 01:46 037 3 gusting 7 16.1
2016-Jun-27 01:40 034 2 gusting 6 16.1
2016-Jun-27 01:36 038 16.1
2016-Jun-27 01:30 038 1 gusting 3 16.1
2016-Jun-27 01:25 036 16.1
2016-Jun-27 01:20 032 3 gusting 5 16.1
2016-Jun-27 01:15 035 16.1
2016-Jun-27 01:10 036 1 gusting 5 16.1
2016-Jun-27 01:05 014 16.7
2016-Jun-27 01:00 014 16.7
2016-Jun-27 00:56 014 16.7
2016-Jun-27 00:50 013 16.7
2016-Jun-27 00:45 013 16.7
2016-Jun-27 00:40 013 16.7
2016-Jun-27 00:35 013 16.7
2016-Jun-27 00:25 013 0 gusting 4 16.7
2016-Jun-27 00:20 005 2 gusting 4 16.7
2016-Jun-27 00:10 355 16.7
2016-Jun-27 00:05 355 16.7
2016-Jun-26 23:55 355 16.7
2016-Jun-26 23:51 355 16.7
2016-Jun-26 23:45 355 16.7
2016-Jun-26 23:40 355 0 gusting 2 16.7
2016-Jun-26 23:35 355 16.7
2016-Jun-26 23:30 355 0 gusting 3 16.7
2016-Jun-26 23:25 355 16.7
2016-Jun-26 23:20 355 3 gusting 5 16.7
2016-Jun-26 23:15 355 0 gusting 5 16.7
2016-Jun-26 23:10 355 1 gusting 5 16.7
2016-Jun-26 23:05 355 2 gusting 6 16.7
2016-Jun-26 22:56 009 17.2
2016-Jun-26 22:50 009 0 gusting 4 17.2
2016-Jun-26 22:45 005 0 gusting 6 17.2
2016-Jun-26 22:41 032 2 gusting 6 17.2
2016-Jun-26 22:35 017 0 gusting 6 17.2
2016-Jun-26 22:30 018 1 gusting 6 17.2
2016-Jun-26 22:25 005 1 gusting 6 17.2
2016-Jun-26 22:20 026 2 gusting 6 17.2
2016-Jun-26 22:15 020 2 gusting 6 17.2
2016-Jun-26 22:11 034 0 gusting 8 17.2
2016-Jun-26 22:01 063 5 gusting 11 17.2